STARLINK-37218, 68403

Orbit data source: Space-Track

STARLINK-37218, 68403 is a payload satellite owned by SpaceX/Seattle (US) in SSO that was launched on Thu, 26 Mar 2026 UTC via an FALCON 9 launch vehicle from the Air Force Western Test Range (AFWTR). Payload-class satellites include a variety of spacecraft equipped with specific instruments for various scientific and technological missions. These include communications satellites like Starlink; space stations such as the ISS; scientific satellites like the Hubble; Earth observation satellites from companies like Planet Labs, Umbra, and HawkEye 360; GPS; miniature CubeSats for education and research; and military/defense satellites.

Not visible in the next 10 days
Identifier
68403, 2026-063Z
Orbit
SSO
Country
Flag of USUS
Related business
Manufacturer
SpaceX/Seattle
Mission
Operational spacecraft
Bus & Motor
STARLINK V2MO, Unknown motor
Mass
575 kg wet, ~530 kg dry
Launch date (UTC)
2026-03-26 (3 months ago)
Launch vehicle
FALCON 9
Launch site
Air Force Western Test Range (AFWTR)
Object type
Payload
Rocket body
Debris
Shape & HBR
Unknown shape, 17.7 m
Radar Cross Section
Large (>1 m²)

Expand to show TLE details & history
Last TLE update: 1 day ago

TLE from 1 day ago
0 STARLINK-37218
1 68403U 26063Z   26164.96915419  .00144815  00000-0  95340-3 0  9998
2 68403  97.2839 309.5926 0002001  76.2772 283.8716 15.75237579 12806
Epoch: 2026-06-13T23:15Z
TLE epoch observation values (Epoch: 2026-06-13T23:15:34.922Z)
Latitude
-0.00005°
Longitude
58.42048°
Altitude
346.801 km
Speed
7.701 km/s
True Right ascension
20h 38m 22s
True Declination
0° 00' 00"
Sunlit
Object was in full shadow at epoch
Visualization orbit readout
Latitude
Unknown
Longitude
Unknown
Altitude
Unknown
Speed
Unknown
Apparent Right ascension
Unknown
Apparent Declination
Unknown
Sunlit
N/A
Visualization observer readout
Local Sidereal Time
14:19:37
Azimuth
Unknown
Elevation
Unknown
Doppler factor
Unknown
Orbital elements
Apogee altitude
342.187 km
Perigee altitude
339.498 km
Semi-major axis
6,718.98 km
Eccentricity
0.0002
Inclination
97.2839°
RAAN
309.5926°
Arg. of periapsis
76.2772°
True anomaly
283.84934°
Mean anomaly
283.8716°
Eccentric anomaly
283.86047°
Mean motion
3.94083 °/min
Orbital period
91.35 mins
BSTAR
0.0009534
Loading maneuver chart data...
Computing Atmospheric mass density...
Loading historical data...
Loading historical data...
Loading historical data...
Loading historical data...
Loading historical data...
Loading historical data...
Loading historical data...

Documentation

Showing up to 5 results
|